This is the latest recevied weather packets stored in our database for station/object EA6AMI-5. If no packets are shown the sender has not sent any weather packets the latest 10 day(s).
| Time | Temp. | Humidity | Pressure | Rain* | Wind** | Luminosity | Snow |
|---|---|---|---|---|---|---|---|
| 1788020823 | 30.56° C | 44% | 1017.5 hPa | 0 mm | - | 157 W/m² | - |
| 1788020283 | 30.56° C | 45% | 1017.5 hPa | 0 mm | - | 161 W/m² | - |
| 1788019743 | 30.56° C | 45% | 1017.5 hPa | 0 mm | - | 176 W/m² | - |
| 1788019203 | 30.56° C | 45% | 1017.6 hPa | 0 mm | - | 215 W/m² | - |
| 1788018843 | 30.56° C | 45% | 1017.7 hPa | 0 mm | - | 244 W/m² | - |
| 1788018303 | 30.56° C | 45% | 1017.5 hPa | 0 mm | - | 298 W/m² | - |
| 1788017763 | 31.11° C | 45% | 1017.5 hPa | 0 mm | - | 334 W/m² | - |
| 1788017223 | 31.11° C | 45% | 1017.7 hPa | 0 mm | - | 356 W/m² | - |
| 1788016683 | 31.11° C | 45% | 1017.8 hPa | 0 mm | - | 377 W/m² | - |
| 1788016143 | 30.56° C | 46% | 1017.6 hPa | 0 mm | - | 392 W/m² | - |
| 1788015603 | 30.56° C | 46% | 1017.8 hPa | 0 mm | - | 416 W/m² | - |
| 1788015244 | 30.56° C | 46% | 1017.7 hPa | 0 mm | - | 441 W/m² | - |
| 1788014703 | 30.56° C | 45% | 1017.7 hPa | 0 mm | - | 474 W/m² | - |
| 1788014164 | 31.11° C | 44% | 1017.7 hPa | 0 mm | - | 507 W/m² | - |
| 1788013624 | 30.56° C | 45% | 1017.7 hPa | 0 mm | - | 536 W/m² | - |
| 1788013083 | 31.67° C | 44% | 1017.8 hPa | 0 mm | - | 561 W/m² | - |
| 1788012543 | 31.11° C | 45% | 1018.1 hPa | 0 mm | - | 571 W/m² | - |
| 1788012003 | 31.11° C | 46% | 1018.1 hPa | 0 mm | - | 606 W/m² | - |
| 1788011643 | 31.67° C | 45% | 1018 hPa | 0 mm | - | 609 W/m² | - |
| 1788011103 | 31.11° C | 46% | 1018 hPa | 0 mm | - | 632 W/m² | - |
| 1788010563 | 31.67° C | 44% | 1018.1 hPa | 0 mm | - | 649 W/m² | - |
| 1788010023 | 31.11° C | 45% | 1018 hPa | 0 mm | - | 679 W/m² | - |
| 1788009484 | 31.67° C | 44% | 1018.3 hPa | 0 mm | - | 732 W/m² | - |
| 1788008943 | 31.67° C | 43% | 1018.1 hPa | 0 mm | - | 782 W/m² | - |
| 1788008403 | 31.11° C | 45% | 1018.2 hPa | 0 mm | - | 877 W/m² | - |
* Rain latest hour (hover to see other rain measurements)
** Current wind speed in m/s (hover to see current wind gust speed)